When you browse on this site, cookies collect data to enhance your experience and personalize the content and advertising you see.
Visit our Privacy Policy to learn more. By continuing to use the site, you agree to this use of cookies and data.
  • Em Portugal
  • Lista de países
  • Para 7 dias
  • Temperatura da água
  • Mapas de satélite
  • Mapa do tempo
  • Widgets de tempo
  • user-avatar
    Iniciar Sessão

    Previsão horária em Kranevo

    Hoje, 19 Abril, Sexta-feira

    Tempo Temperatura Precipitação Vento Pressão Humidade
    00:00 +4°C° 0 mm 3 m/s 764 mmHg 81%
    01:00 +4°C° 0 mm 3 m/s 764 mmHg 83%
    02:00 +3°C° 0 mm 3 m/s 763 mmHg 81%
    03:00 +3°C° 0 mm 3 m/s 763 mmHg 83%
    04:00 +3°C° 0 mm 3 m/s 763 mmHg 84%
    05:00 +3°C° 0 mm 3 m/s 763 mmHg 86%
    06:00 +5°C° 0 mm 4 m/s 763 mmHg 80%
    07:00 +7°C° 0 mm 4 m/s 763 mmHg 75%
    08:00 +9°C° 0 mm 5 m/s 762 mmHg 70%
    09:00 +10°C° 0 mm 4 m/s 762 mmHg 67%
    10:00 +11°C° 0 mm 4 m/s 762 mmHg 63%
    11:00 +12°C° 0 mm 3 m/s 762 mmHg 60%
    12:00 +12°C° 0.4 mm 3 m/s 762 mmHg 64%
    13:00 +11°C° 0.4 mm 3 m/s 762 mmHg 67%
    14:00 +11°C° 0.4 mm 4 m/s 762 mmHg 71%
    15:00 +10°C° 0.5 mm 3 m/s 762 mmHg 73%
    16:00 +9°C° 0.5 mm 2 m/s 762 mmHg 75%
    17:00 +8°C° 0.5 mm 2 m/s 762 mmHg 78%
    18:00 +8°C° 0 mm 1 m/s 762 mmHg 78%
    19:00 +8°C° 0 mm 1 m/s 762 mmHg 79%
    20:00 +7°C° 0 mm 1 m/s 762 mmHg 79%
    21:00 +7°C° 0 mm 1 m/s 763 mmHg 79%
    22:00 +5°C° 0 mm 2 m/s 763 mmHg 79%
    23:00 +5°C° 0 mm 2 m/s 763 mmHg 79%

    Amanhã, 20 Abril, Sábado

    Tempo Temperatura Precipitação Vento Pressão Humidade
    00:00 +5°C° 0 mm 2 m/s 763 mmHg 79%
    01:00 +4°C° 0 mm 3 m/s 763 mmHg 78%
    02:00 +4°C° 0 mm 3 m/s 763 mmHg 78%
    03:00 +4°C° 0 mm 3 m/s 763 mmHg 78%
    04:00 +4°C° 0 mm 4 m/s 763 mmHg 78%
    05:00 +4°C° 0 mm 4 m/s 763 mmHg 78%
    06:00 +5°C° 0.1 mm 5 m/s 763 mmHg 76%
    07:00 +6°C° 0.1 mm 5 m/s 764 mmHg 73%
    08:00 +8°C° 0.1 mm 6 m/s 764 mmHg 71%
    09:00 +8°C° 0.1 mm 6 m/s 764 mmHg 64%
    10:00 +9°C° 0.1 mm 7 m/s 764 mmHg 57%
    11:00 +10°C° 0.1 mm 7 m/s 764 mmHg 51%
    12:00 +10°C° 0 mm 7 m/s 764 mmHg 51%
    13:00 +11°C° 0 mm 7 m/s 764 mmHg 50%
    14:00 +11°C° 0 mm 6 m/s 764 mmHg 50%
    15:00 +10°C° 0 mm 6 m/s 764 mmHg 53%
    16:00 +10°C° 0 mm 5 m/s 764 mmHg 55%
    17:00 +11°C° 0 mm 4 m/s 763 mmHg 58%
    18:00 +8°C° 0 mm 4 m/s 763 mmHg 61%
    19:00 +8°C° 0 mm 3 m/s 764 mmHg 64%
    20:00 +5°C° 0 mm 3 m/s 764 mmHg 67%
    21:00 +5°C° 0 mm 3 m/s 764 mmHg 66%
    22:00 +5°C° 0 mm 3 m/s 764 mmHg 64%
    23:00 +5°C° 0 mm 3 m/s 764 mmHg 63%

    Depois de amanhã, 21 Abril, Domingo

    Tempo Temperatura Precipitação Vento Pressão Humidade
    00:00 +5°C° 0 mm 4 m/s 764 mmHg 65%
    01:00 +4°C° 0 mm 4 m/s 763 mmHg 67%
    02:00 +4°C° 0 mm 4 m/s 763 mmHg 70%
    03:00 +4°C° 0 mm 4 m/s 763 mmHg 71%
    04:00 +4°C° 0 mm 4 m/s 763 mmHg 73%
    05:00 +4°C° 0 mm 4 m/s 763 mmHg 75%
    06:00 +5°C° 0 mm 4 m/s 763 mmHg 71%
    07:00 +7°C° 0 mm 3 m/s 763 mmHg 68%
    08:00 +9°C° 0 mm 3 m/s 764 mmHg 65%
    09:00 +10°C° 0 mm 3 m/s 764 mmHg 59%
    10:00 +11°C° 0 mm 3 m/s 763 mmHg 54%
    11:00 +13°C° 0 mm 3 m/s 763 mmHg 49%
    12:00 +12°C° 0 mm 3 m/s 763 mmHg 50%
    13:00 +12°C° 0 mm 3 m/s 763 mmHg 51%
    14:00 +12°C° 0 mm 3 m/s 763 mmHg 52%
    15:00 +12°C° 0 mm 3 m/s 763 mmHg 54%
    16:00 +11°C° 0 mm 3 m/s 762 mmHg 56%
    17:00 +11°C° 0 mm 3 m/s 762 mmHg 58%
    18:00 +10°C° 0 mm 3 m/s 762 mmHg 63%
    19:00 +8°C° 0 mm 2 m/s 763 mmHg 67%
    20:00 +7°C° 0 mm 2 m/s 763 mmHg 72%
    21:00 +7°C° 0 mm 1 m/s 763 mmHg 74%
    22:00 +7°C° 0 mm 1 m/s 763 mmHg 76%
    23:00 +5°C° 0 mm 0 m/s 763 mmHg 78%

    22 Abril, Segunda-feira

    Tempo Temperatura Precipitação Vento Pressão Humidade
    00:00 +6°C° 0 mm 1 m/s 763 mmHg 77%
    01:00 +6°C° 0 mm 1 m/s 763 mmHg 77%
    02:00 +6°C° 0 mm 1 m/s 763 mmHg 77%
    03:00 +6°C° 0 mm 1 m/s 763 mmHg 76%
    04:00 +4°C° 0 mm 2 m/s 763 mmHg 76%
    05:00 +4°C° 0 mm 2 m/s 763 mmHg 75%
    06:00 +6°C° 0 mm 2 m/s 763 mmHg 72%
    07:00 +8°C° 0 mm 2 m/s 763 mmHg 68%
    08:00 +9°C° 0 mm 3 m/s 764 mmHg 65%
    09:00 +10°C° 0 mm 3 m/s 764 mmHg 60%
    10:00 +11°C° 0 mm 3 m/s 764 mmHg 55%
    11:00 +12°C° 0 mm 4 m/s 764 mmHg 49%
    12:00 +13°C° 0 mm 4 m/s 764 mmHg 50%
    13:00 +13°C° 0 mm 4 m/s 764 mmHg 51%
    14:00 +13°C° 0 mm 4 m/s 763 mmHg 51%
    15:00 +13°C° 0 mm 4 m/s 763 mmHg 54%
    16:00 +12°C° 0 mm 4 m/s 763 mmHg 56%
    17:00 +12°C° 0 mm 4 m/s 763 mmHg 58%
    18:00 +10°C° 0 mm 4 m/s 764 mmHg 67%
    19:00 +8°C° 0 mm 3 m/s 764 mmHg 76%
    20:00 +7°C° 0 mm 3 m/s 764 mmHg 85%
    21:00 +7°C° 0 mm 3 m/s 764 mmHg 86%
    22:00 +5°C° 0 mm 3 m/s 764 mmHg 87%
    23:00 +5°C° 0 mm 3 m/s 764 mmHg 89%

    23 Abril, Terça-feira

    Tempo Temperatura Precipitação Vento Pressão Humidade
    00:00 +6°C° 0 mm 2 m/s 764 mmHg 88%
    01:00 +6°C° 0 mm 2 m/s 764 mmHg 87%
    02:00 +7°C° 0 mm 1 m/s 764 mmHg 87%
    03:00 +7°C° 0 mm 1 m/s 765 mmHg 86%
    04:00 +6°C° 0 mm 1 m/s 765 mmHg 86%
    05:00 +5°C° 0 mm 2 m/s 765 mmHg 86%
    06:00 +7°C° 0 mm 2 m/s 765 mmHg 81%
    07:00 +8°C° 0 mm 2 m/s 765 mmHg 77%
    08:00 +10°C° 0 mm 3 m/s 765 mmHg 72%
    09:00 +11°C° 0 mm 4 m/s 766 mmHg 68%
    10:00 +11°C° 0 mm 4 m/s 766 mmHg 64%
    11:00 +12°C° 0 mm 5 m/s 766 mmHg 59%
    12:00 +12°C° 0 mm 5 m/s 766 mmHg 60%
    13:00 +12°C° 0 mm 5 m/s 765 mmHg 60%
    14:00 +13°C° 0 mm 5 m/s 765 mmHg 60%
    15:00 +12°C° 0 mm 5 m/s 765 mmHg 63%
    16:00 +10°C° 0 mm 5 m/s 765 mmHg 66%
    17:00 +10°C° 0 mm 5 m/s 764 mmHg 69%
    18:00 +9°C° 0.2 mm 5 m/s 764 mmHg 73%
    19:00 +8°C° 0.2 mm 4 m/s 765 mmHg 77%
    20:00 +9°C° 0.2 mm 3 m/s 765 mmHg 81%
    21:00 +9°C° 0.1 mm 3 m/s 765 mmHg 83%
    22:00 +8°C° 0.1 mm 4 m/s 765 mmHg 85%
    23:00 +8°C° 0.1 mm 4 m/s 765 mmHg 87%

    24 Abril, Quarta-feira

    Tempo Temperatura Precipitação Vento Pressão Humidade
    00:00 +7°C° 0 mm 4 m/s 764 mmHg 89%
    01:00 +8°C° 0 mm 3 m/s 764 mmHg 90%
    02:00 +8°C° 0 mm 3 m/s 764 mmHg 92%
    03:00 +8°C° 0.2 mm 3 m/s 764 mmHg 92%
    04:00 +8°C° 0.2 mm 3 m/s 764 mmHg 92%
    05:00 +8°C° 0.2 mm 3 m/s 764 mmHg 93%
    06:00 +9°C° 0.6 mm 3 m/s 764 mmHg 92%
    07:00 +8°C° 0.6 mm 4 m/s 764 mmHg 91%
    08:00 +10°C° 0.6 mm 4 m/s 765 mmHg 90%
    09:00 +11°C° 0 mm 4 m/s 765 mmHg 83%
    10:00 +12°C° 0 mm 4 m/s 765 mmHg 76%
    11:00 +13°C° 0 mm 4 m/s 765 mmHg 70%
    12:00 +13°C° 0 mm 4 m/s 765 mmHg 68%
    13:00 +14°C° 0 mm 4 m/s 764 mmHg 67%
    14:00 +14°C° 0 mm 4 m/s 764 mmHg 65%
    15:00 +14°C° 0 mm 4 m/s 764 mmHg 68%
    16:00 +13°C° 0 mm 4 m/s 764 mmHg 71%
    17:00 +13°C° 0 mm 4 m/s 764 mmHg 74%
    18:00 +11°C° 0 mm 3 m/s 764 mmHg 81%
    19:00 +10°C° 0 mm 3 m/s 765 mmHg 87%
    20:00 +9°C° 0 mm 2 m/s 765 mmHg 94%
    21:00 +8°C° 0 mm 2 m/s 765 mmHg 95%
    22:00 +8°C° 0 mm 2 m/s 765 mmHg 95%
    23:00 +8°C° 0 mm 2 m/s 765 mmHg 96%
    Mostrar mais